Startpagina
METAR-TAF:

METAR-TAF

Vliegvelden :

Reims, Frankrijk

breedte: 49-12-31N, lengte: 004-09-24E, hoogte: 95 m

Actueel weer

Dit bericht is 37 minuten geleden gemaakt, om 21:00 UTC
Wind 2 kt uit variabele richting
Temperatuur 20°C
Vochtigheid 60%
Druk 1013 hPa
Zicht 10 km of meer
geen wolken onder 1500 m en geen cumulonimbus

METAR: LFQA 162100Z AUTO VRB02KT CAVOK 20/12 Q1013

Tijdstip: 23:37 (21:37 UTC)


TAF: ontbreekt

Waarnemingen en weersverwachtingen van meer dan 4000 vliegvelden (METAR en TAF).

De beschikbare stations zijn de gele en rode punten op de kaart.

Ga met uw muis naar het station om de naam te zien.

Klik dan om waarnemingen en weersverwachtingen te zien.

kaart wijzigen: klik op de groene knoppen met een zwart kruis om in te zoomen, op de groene knop met een streepje om uit te zoomen of op de groene pijlen voor aangrenzende kaarten.


METAR-TAF: